Weather History for Piney Island, NC

Change the Weather History Date:

Tuesday, June 12, 2012

  Actual Average (KMRH) Record (KMRH)
Temperature  
Mean Temperature 78 °F -  
Max Temperature 84 °F 82 °F 92 °F (1952)
Min Temperature 73 °F 65 °F 49 °F (1972)
Cooling Degree Days 14    
Growing Degree Days 28 (Base 50)    
Moisture  
Dew Point 69 °F    
Average Humidity 72    
Maximum Humidity 87    
Minimum Humidity 60    
Precipitation  
Precipitation 0.06 in - - ()
Sea Level Pressure  
Sea Level Pressure 30.02 in    
Wind  
Wind Speed 9 mph (South)    
Max Wind Speed 18 mph    
Max Gust Speed 25 mph    
Visibility 10 miles    
Events Rain    
Averages and records for this station are not official NWS values.
T = Trace of Precipitation, MM = Missing Value Source: NWS Daily Summary

Daily Weather History Graph

Daily Weather History Graph

Search for Another Location

Airport:

Trip Planner

Search our weather history database for the weather conditions in past years. The results will help you decide how hot, cold, wet, or windy it might be!

Date:

Astronomy

Jun. 12, 2012 Rise Set
Actual Time 5:51 AM EDT 8:20 PM EDT
Civil Twilight 5:21 AM EDT 8:50 PM EDT
Nautical Twilight 4:45 AM EDT 9:26 PM EDT
Astronomical Twilight 4:04 AM EDT 10:07 PM EDT
Moon 1:23 AM EDT (6/12) 2:18 PM EDT (6/12)
Length of Visible Light 15h 28m
Length of Day
14h 29m
Last Quarter, 38% of the Moon is Illuminated
Jun 12
Last Quarter
Jun 19
New
Jun 26
First Quarter
Jul 3
Full
Jul 10
Last Quarter

Hourly Weather History & Observations

Time (EDT) Temp. Heat Index Dew Point Humidity Pressure Visibility Wind Dir Wind Speed Gust Speed Precip Events Conditions
12:23 AM 78.8 °F - 68.0 °F 69% 30.12 in 10.0 mi South 4.6 mph - N/A   Overcast
12:42 AM 78.8 °F - 69.8 °F 74% 30.12 in 10.0 mi South 6.9 mph - N/A   Overcast
12:56 AM 78.1 °F - 69.1 °F 74% 30.13 in 10.0 mi South 4.6 mph - N/A   Overcast
1:56 AM 78.1 °F - 70.0 °F 76% 30.11 in 10.0 mi South 4.6 mph - N/A   Overcast
2:56 AM 77.0 °F - 68.0 °F 74% 30.09 in 10.0 mi South 8.1 mph - 0.00 in   Overcast
3:48 AM 75.2 °F - 68.0 °F 78% 30.06 in 10.0 mi South 12.7 mph 19.6 mph 0.00 in Rain Light Rain
3:56 AM 73.9 °F - 68.0 °F 82% 30.07 in 10.0 mi SSE 12.7 mph 19.6 mph 0.00 in   Overcast
4:56 AM 75.9 °F - 69.1 °F 79% 30.05 in 10.0 mi SSE 9.2 mph - 0.00 in   Overcast
5:56 AM 75.9 °F - 69.1 °F 79% 30.06 in 10.0 mi SSE 4.6 mph - N/A   Overcast
6:56 AM 77.0 °F - 70.0 °F 79% 30.07 in 10.0 mi SSE 5.8 mph - N/A   Overcast
7:56 AM 78.1 °F - 70.0 °F 76% 30.08 in 10.0 mi South 5.8 mph - N/A   Overcast
8:56 AM 78.1 °F - 68.0 °F 71% 30.07 in 10.0 mi South 6.9 mph - N/A   Overcast
9:56 AM 78.1 °F - 68.0 °F 71% 30.06 in 10.0 mi Variable 3.5 mph - N/A   Overcast
10:56 AM 81.0 °F 84.1 °F 69.1 °F 67% 30.05 in 10.0 mi SSW 11.5 mph 19.6 mph N/A   Overcast
11:56 AM 82.9 °F 85.8 °F 68.0 °F 60% 30.04 in 9.0 mi South 13.8 mph 23.0 mph N/A   Scattered Clouds
12:56 PM 82.9 °F 85.8 °F 68.0 °F 60% 30.03 in 10.0 mi South 18.4 mph 23.0 mph N/A   Overcast
1:56 PM 82.9 °F 86.5 °F 69.1 °F 63% 30.01 in 9.0 mi SSW 17.3 mph 24.2 mph N/A   Overcast
2:56 PM 84.0 °F 87.8 °F 69.1 °F 61% 30.00 in 10.0 mi SSW 15.0 mph 25.3 mph N/A   Overcast
3:20 PM 82.4 °F 85.4 °F 68.0 °F 62% 29.98 in 10.0 mi South 16.1 mph 23.0 mph N/A   Overcast
3:27 PM 82.4 °F 85.4 °F 68.0 °F 62% 29.98 in 10.0 mi South 13.8 mph 21.9 mph N/A   Overcast
3:56 PM 82.0 °F 84.9 °F 68.0 °F 62% 29.99 in 10.0 mi SSW 17.3 mph 25.3 mph N/A   Overcast
4:56 PM 81.0 °F 84.1 °F 69.1 °F 67% 29.96 in 10.0 mi SSW 15.0 mph 24.2 mph 0.00 in Rain Light Rain
5:52 PM 80.6 °F 83.9 °F 69.8 °F 70% 29.93 in 10.0 mi SSW 12.7 mph 23.0 mph 0.00 in Rain Light Rain
5:56 PM 80.1 °F 82.9 °F 69.1 °F 69% 29.95 in 10.0 mi SSW 12.7 mph 23.0 mph 0.00 in   Overcast
6:31 PM 80.6 °F 83.9 °F 69.8 °F 70% 29.92 in 10.0 mi South 12.7 mph 20.7 mph N/A   Overcast
6:56 PM 80.1 °F 83.2 °F 70.0 °F 71% 29.94 in 10.0 mi SSW 16.1 mph 23.0 mph N/A   Mostly Cloudy
7:56 PM 80.1 °F 83.2 °F 70.0 °F 71% 29.94 in 10.0 mi SSW 9.2 mph - N/A   Overcast
8:56 PM 79.0 °F - 70.0 °F 74% 29.94 in 10.0 mi South 6.9 mph - N/A   Overcast
9:56 PM 78.1 °F - 71.1 °F 79% 29.94 in 6.0 mi SSW 10.4 mph - 0.00 in Rain Rain
10:56 PM 77.0 °F - 72.0 °F 84% 29.93 in 10.0 mi South 11.5 mph 23.0 mph 0.06 in Rain Light Rain
11:56 PM 75.9 °F - 72.0 °F 87% 29.93 in 10.0 mi South 8.1 mph - N/A   Mostly Cloudy